1515693601.03,64478,10.06,73104.8,-6.45,-29.83,-30.01,0,*5C
1515693602.26,64479,10.06,73106.5,-6.45,-29.83,-30.11,0,*5C
1515693603.49,64480,10.06,73106.8,-6.43,-29.79,-30.01,0,*58
1515693604.72,64481,10.06,73106.0,-6.45,-29.79,-29.95,0,*5A
1515693605.98,64482,10.06,73100.0,-6.45,-29.79,-30.01,0,*5C
1515693607.19,64483,10.06,73104.3,-6.43,-29.83,-29.95,0,*5B
1515693608.45,64484,10.06,73104.5,-6.45,-29.79,-30.01,0,*5A
1515693609.65,64485,10.06,73100.8,-6.43,-29.79,-30.11,0,*5C
1515693610.91,64486,10.06,73102.5,-6.45,-29.79,-30.01,0,*58
1515693612.14,64487,10.06,73102.0,-6.45,-29.67,-29.83,0,*54
1515693613.38,64488,10.0,73098.8,-6.43,-29.83,-30.01,0,*55
1515693614.62,64489,10.06,73104.8,-6.45,-29.83,-29.95,0,*57
1515693615.88,64490,10.06,73104.8,-6.45,-29.95,-30.01,0,*5D
1515693617.14,64491,10.06,73100.8,-6.45,-29.95,-30.01,0,*5C
1515693618.4,64492,10.0,73100.0,-6.45,-29.83,-30.01,0,*58
1515693619.63,64493,10.06,73100.5,-6.45,-29.79,-29.95,0,*59
1515693620.9,64494,10.06,73102.0,-6.45,-29.83,-30.01,0,*5E
1515693622.13,64495,10.06,73102.8,-6.43,-29.83,-30.01,0,*59
1515693623.39,64496,10.0,73100.0,-6.45,-29.79,-30.01,0,*59
1515693624.62,64497,10.06,73106.3,-6.45,-29.79,-29.95,0,*5D
1515693625.82,64498,10.06,73100.0,-6.43,-29.79,-29.95,0,*54
1515693627.06,64499,10.0,73098.5,-6.45,-29.79,-29.95,0,*53
1515693628.31,64500,10.0,73100.3,-6.45,-29.79,-30.01,0,*57
1515693629.55,64501,10.06,73100.8,-6.43,-29.79,-30.01,0,*50
1515693630.81,64502,10.0,73100.0,-6.45,-29.83,-30.01,0,*50
1515693632.04,64503,10.0,73098.5,-6.45,-29.79,-29.95,0,*51
1515693633.3,64504,10.06,73096.3,-6.45,-29.79,-30.01,0,*53
1515693634.53,64505,10.06,73102.3,-6.43,-29.79,-30.01,0,*54
1515693635.79,64506,10.06,73098.8,-6.45,-29.79,-30.01,0,*51
1515693637.02,64507,10.06,73098.5,-6.45,-29.79,-29.95,0,*55
1515693638.25,64508,10.06,73102.3,-6.47,-29.79,-30.01,0,*5D
1515693639.49,64509,10.06,73102.8,-6.47,-29.83,-30.01,0,*59
1515693640.75,64510,10.06,73100.0,-6.45,-29.83,-30.01,0,*53
1515693642.01,64511,10.06,73100.8,-6.45,-29.79,-30.01,0,*57
1515693643.24,64512,10.06,73100.8,-6.45,-29.79,-30.11,0,*55
1515693644.5,64513,10.0,73098.0,-6.45,-29.83,-30.01,0,*50
1515693645.71,64514,10.06,73100.0,-6.47,-29.79,-29.95,0,*55
1515693646.92,64515,10.0,73098.3,-6.47,-29.79,-29.95,0,*54
1515693648.13,64516,10.06,73100.0,-6.47,-29.79,-29.83,0,*50
1515693649.37,64517,10.06,73096.5,-6.47,-29.83,-30.01,0,*56
1515693650.63,64518,10.0,73098.8,-6.51,-29.89,-30.05,0,*50
1515693651.87,64519,10.06,73102.3,-6.47,-29.83,-30.01,0,*58
1515693653.07,64520,10.06,73102.3,-6.47,-29.79,-29.95,0,*52
1515693654.29,64521,10.06,73106.0,-6.47,-29.83,-29.95,0,*56
1515693655.49,64522,10.06,73102.0,-6.47,-29.79,-29.95,0,*50
1515693656.72,64523,10.06,73100.3,-6.45,-29.79,-29.95,0,*53
1515693657.96,64524,10.06,73100.0,-6.45,-29.83,-29.95,0,*51
1515693659.19,64525,10.06,73102.5,-6.45,-29.79,-29.95,0,*55
1515693660.42,64526,10.06,73102.5,-6.45,-29.79,-29.95,0,*56
1515693661.62,64527,10.06,73100.3,-6.47,-29.79,-29.95,0,*55
1515693662.83,64528,10.06,73104.3,-6.47,-29.79,-29.95,0,*5A
1515693664.04,64529,10.06,73106.8,-6.47,-29.83,-29.95,0,*5E
1515693665.25,64530,10.06,73106.3,-6.47,-29.83,-29.95,0,*56
1515693666.46,64531,10.06,73102.8,-6.47,-29.83,-29.95,0,*57
1515693667.7,64532,10.06,73102.8,-6.47,-29.79,-30.01,0,*54
1515693668.91,64533,10.0,73096.3,-6.47,-29.79,-29.83,0,*57
1515693670.12,64534,10.06,73100.5,-6.47,-29.79,-29.95,0,*57
1515693671.32,64535,10.06,73096.8,-6.47,-29.79,-29.95,0,*56
1515693672.56,64536,10.06,73104.0,-6.47,-29.79,-30.01,0,*50
1515693673.8,64537,10.06,73108.3,-6.47,-29.83,-30.01,0,*54
1515693675.03,64538,10.0,73100.5,-6.47,-29.83,-30.05,0,*5F
1515693676.24,64539,10.06,73104.0,-6.47,-29.83,-30.11,0,*5B
1515693677.48,64540,10.06,73104.8,-6.47,-29.83,-30.01,0,*54
1515693678.74,64541,10.06,73102.3,-6.51,-29.89,-30.05,0,*5C
1515693679.98,64542,10.06,73104.5,-6.47,-29.79,-30.01,0,*53
1515693681.22,64543,10.06,73106.5,-6.51,-29.83,-30.01,0,*50
1515693682.45,64544,10.06,73104.3,-6.51,-29.83,-30.05,0,*53
1515693683.69,64545,10.06,73100.5,-6.51,-29.83,-30.01,0,*56
1515693684.93,64546,10.06,73104.8,-6.47,-29.79,-30.01,0,*57
1515693686.19,64547,10.0,73100.8,-6.51,-29.89,-30.01,0,*5E
1515693687.43,64548,10.06,73100.8,-6.51,-29.83,-30.01,0,*5B
1515693688.7,64549,10.06,73100.3,-6.51,-29.89,-30.05,0,*54
1515693689.94,64550,10.06,73104.3,-6.51,-29.83,-29.89,0,*5A
1515693691.15,64551,10.06,73106.5,-6.47,-29.67,-29.83,0,*5C
1515693692.41,64552,10.06,73106.8,-6.51,-29.89,-30.05,0,*5E
1515693693.66,64553,10.06,73110.8,-6.51,-29.83,-30.01,0,*51
1515693694.87,64554,10.0,73100.8,-6.47,-29.67,-29.95,0,*5E
1515693696.08,64555,10.06,73106.3,-6.47,-29.83,-29.95,0,*55
1515693697.28,64556,10.06,73106.5,-6.47,-29.79,-29.95,0,*53
1515693698.52,64557,10.06,73104.3,-6.51,-29.83,-29.89,0,*5D
1515693699.77,64558,10.0,73102.3,-6.51,-29.83,-30.01,0,*5A
1515693701.0,64559,10.06,73104.3,-6.51,-29.83,-30.05,0,*5F
1515693702.24,64560,10.0,73098.0,-6.51,-29.83,-30.05,0,*55
1515693703.45,64561,10.06,73106.5,-6.47,-29.79,-29.83,0,*50
1515693704.69,64562,10.06,73104.0,-6.51,-29.83,-30.01,0,*53
1515693705.93,64563,10.06,73106.5,-6.51,-29.83,-30.01,0,*52
1515693707.14,64564,10.06,73100.8,-6.47,-29.67,-29.83,0,*5A
1515693708.38,64565,10.06,73104.0,-6.51,-29.83,-29.89,0,*5C
1515693709.65,64566,10.06,73102.3,-6.51,-29.73,-29.89,0,*50
1515693710.89,64567,10.06,73100.8,-6.51,-29.83,-29.89,0,*5E
1515693712.13,64568,10.0,73106.0,-6.51,-29.83,-30.01,0,*59
1515693713.36,64569,10.06,73106.5,-6.51,-29.83,-30.05,0,*5C
1515693714.61,64570,10.06,73106.3,-6.51,-29.83,-29.89,0,*58
1515693715.82,64571,10.06,73104.3,-6.51,-29.67,-29.83,0,*59
1515693717.03,64572,10.06,73110.3,-6.47,-29.67,-29.83,0,*5D
1515693718.29,64573,10.06,73104.8,-6.51,-29.73,-30.01,0,*5C
1515693719.56,64574,10.06,73104.3,-6.51,-29.89,-30.01,0,*5E
1515693720.77,64575,10.06,73104.5,-6.51,-29.83,-29.95,0,*50
1515693721.98,64576,10.06,73104.3,-6.51,-29.83,-29.95,0,*53
1515693723.24,64577,10.06,73104.5,-6.51,-30.01,-30.05,0,*51
1515693724.51,64578,10.06,73108.5,-6.51,-29.89,-30.17,0,*55
1515693725.77,64579,10.06,73110.0,-6.51,-29.89,-30.05,0,*57
1515693727.0,64580,10.06,73106.3,-6.51,-29.83,-30.05,0,*5B
1515693728.24,64581,10.06,73108.0,-6.53,-29.95,-30.11,0,*5A
1515693729.48,64582,10.06,73104.0,-6.51,-29.83,-29.89,0,*55
1515693730.75,64583,10.0,73104.5,-6.51,-29.89,-30.01,0,*56
1515693731.98,64584,10.06,73102.5,-6.51,-29.83,-30.01,0,*5B
1515693733.19,64585,10.06,73104.0,-6.47,-29.79,-29.95,0,*5D
1515693734.45,64586,10.06,73108.3,-6.51,-29.73,-29.73,0,*5B
1515693735.71,64587,10.06,73104.5,-6.51,-29.73,-29.89,0,*5F
1515693736.97,64588,10.06,73106.0,-6.51,-29.73,-29.89,0,*50
1515693738.23,64589,10.06,73104.5,-6.51,-29.73,-29.89,0,*51
1515693739.46,64590,10.06,73108.3,-6.53,-29.79,-29.95,0,*5C
1515693740.69,64591,10.06,73102.3,-6.53,-29.79,-29.95,0,*5D
1515693741.93,64592,10.06,73104.3,-6.51,-29.73,-29.83,0,*51
1515693743.19,64593,10.06,73106.8,-6.51,-29.73,-29.89,0,*5A
1515693744.45,64594,10.06,73106.3,-6.51,-29.73,-29.89,0,*5D
1515693745.66,64595,10.06,73106.5,-6.47,-29.67,-29.83,0,*54
1515693746.95,64596,10.06,73102.3,-6.53,-29.73,-29.89,0,*5D
1515693748.17,64597,10.06,73106.3,-6.53,-29.79,-29.79,0,*59
1515693749.44,64598,10.06,73100.5,-6.51,-29.73,-29.89,0,*51
1515693750.7,64599,10.06,73100.0,-6.51,-29.73,-29.89,0,*50
1515693751.95,64600,10.06,73102.5,-6.51,-29.73,-30.01,0,*5B
1515693753.19,64601,10.06,73100.0,-6.51,-29.73,-29.83,0,*58
1515693754.45,64602,10.06,73102.8,-6.51,-29.73,-30.01,0,*59
1515693755.66,64603,10.06,73102.8,-6.47,-29.83,-29.83,0,*52
1515693756.93,64604,10.06,73104.5,-6.51,-29.73,-29.89,0,*57
1515693758.19,64605,10.06,73106.0,-6.51,-29.73,-29.89,0,*56
1515693759.44,64606,10.06,73106.8,-6.51,-29.73,-30.05,0,*59
1515693760.7,64607,10.06,73108.3,-6.51,-29.73,-30.01,0,*5C
1515693761.94,64608,10.06,73106.3,-6.51,-29.83,-30.01,0,*5C
1515693763.16,64609,10.06,73106.8,-6.51,-29.83,-29.83,0,*5F
1515693764.4,64610,10.0,73104.5,-6.51,-29.83,-30.01,0,*55
1515693765.63,64611,10.06,73106.8,-6.51,-29.83,-30.05,0,*50
1515693766.89,64612,10.06,73106.0,-6.51,-29.73,-30.05,0,*5C
1515693768.17,64613,10.06,73104.5,-6.53,-29.89,-30.05,0,*5A
1515693769.4,64614,10.06,73108.3,-6.53,-29.79,-29.95,0,*53
1515693770.61,64615,10.06,73106.3,-6.55,-29.79,-29.79,0,*56
1515693771.84,64616,10.06,73104.8,-6.53,-29.79,-29.95,0,*51
1515693773.1,64617,10.06,73108.0,-6.53,-29.89,-29.95,0,*5F
1515693774.36,64618,10.06,73106.3,-6.53,-29.73,-29.61,0,*5E
1515693775.62,64619,10.06,73100.8,-6.51,-29.73,-29.89,0,*5B
1515693776.88,64620,10.06,73104.3,-6.47,-29.73,-29.89,0,*56
1515693778.14,64621,10.06,73104.3,-6.51,-29.73,-30.01,0,*58
1515693779.37,64622,10.06,73104.8,-6.51,-29.73,-29.83,0,*59
1515693780.62,64623,10.06,73104.3,-6.51,-29.73,-29.73,0,*57
1515693781.87,64624,10.06,73102.8,-6.51,-29.51,-29.57,0,*56
1515693783.1,64625,10.06,73104.0,-6.51,-29.73,-29.83,0,*5E
1515693784.32,64626,10.0,73100.3,-6.51,-29.67,-29.57,0,*51
1515693785.59,64627,10.06,73100.0,-6.47,-29.51,-29.51,0,*54
1515693786.8,64628,10.06,73102.3,-6.51,-29.57,-29.57,0,*5C
1515693788.04,64629,10.06,73102.3,-6.51,-29.67,-29.73,0,*58
1515693789.25,64630,10.06,73100.0,-6.51,-29.67,-29.57,0,*56
1515693790.46,64631,10.06,73102.5,-6.47,-29.61,-29.67,0,*55
1515693791.68,64632,10.06,73104.0,-6.47,-29.67,-29.67,0,*50
1515693792.94,64633,10.06,73102.8,-6.47,-29.51,-29.51,0,*51
1515693794.19,64634,10.06,73100.8,-6.47,-29.51,-29.67,0,*53
1515693795.42,64635,10.06,73102.5,-6.51,-29.73,-29.83,0,*5F
1515693796.64,64636,10.06,73102.0,-6.47,-29.61,-29.67,0,*52
1515693797.87,64637,10.06,73100.3,-6.45,-29.67,-29.67,0,*57
1515693799.08,64638,10.0,73098.8,-6.47,-29.67,-29.79,0,*55
1515693800.29,64639,10.06,73100.8,-6.47,-29.67,-29.83,0,*51
1515693801.51,64640,10.06,73104.5,-6.47,-29.67,-29.83,0,*5F
1515693802.71,64641,10.06,73102.5,-6.47,-29.67,-29.79,0,*5B
1515693803.95,64642,10.06,73100.8,-6.47,-29.61,-29.51,0,*54
1515693805.17,64643,10.06,73100.8,-6.47,-29.67,-29.83,0,*5C
1515693806.43,64644,10.06,73104.8,-6.51,-29.73,-30.01,0,*5B
1515693807.66,64645,10.06,73110.5,-6.45,-29.79,-29.83,0,*57
1515693808.87,64646,10.0,73102.8,-6.47,-29.79,-29.83,0,*56
1515693810.08,64647,10.06,73102.5,-6.47,-29.79,-29.83,0,*57
1515693811.31,64648,10.06,73106.5,-6.45,-29.61,-29.79,0,*56
1515693812.52,64649,10.0,73102.5,-6.47,-29.67,-29.79,0,*53
1515693813.78,64650,10.06,73106.8,-6.45,-29.79,-30.01,0,*51
1515693814.98,64651,10.06,73104.5,-6.47,-29.79,-29.95,0,*57
1515693816.19,64652,10.06,73100.3,-6.47,-29.83,-29.95,0,*51
1515693817.4,64653,10.06,73100.5,-6.47,-29.67,-29.79,0,*58
1515693818.62,64654,10.06,73100.5,-6.47,-29.67,-29.83,0,*5A
1515693819.82,64655,10.06,73102.5,-6.47,-29.79,-29.95,0,*53
1515693821.08,64656,10.06,73100.0,-6.51,-29.89,-30.05,0,*59
1515693822.3,64657,10.06,73104.8,-6.47,-29.83,-29.95,0,*54
1515693823.5,64658,10.06,73106.5,-6.47,-29.79,-29.95,0,*5E
1515693824.71,64659,10.06,73106.3,-6.47,-29.79,-29.95,0,*5F
1515693825.95,64660,10.06,73100.0,-6.47,-29.83,-30.01,0,*55
1515693827.16,64661,10.06,73106.0,-6.47,-29.79,-29.95,0,*54
1515693828.36,64662,10.06,73104.5,-6.47,-29.79,-29.95,0,*57
1515693829.6,64663,10.06,73102.8,-6.51,-29.83,-29.89,0,*59
1515693830.81,64664,10.06,73100.0,-6.47,-29.79,-29.79,0,*53
1515693832.02,64665,10.06,73102.0,-6.47,-29.79,-29.83,0,*57
1515693833.22,64666,10.06,73100.3,-6.47,-29.79,-29.79,0,*51
1515693834.42,64667,10.06,73106.3,-6.47,-29.79,-29.79,0,*50
1515693835.64,64668,10.06,73104.5,-6.47,-29.67,-29.83,0,*55
1515693836.9,64669,10.06,73102.3,-6.51,-29.73,-29.89,0,*5C
1515693838.11,64670,10.06,73106.5,-6.51,-29.61,-29.83,0,*5D
1515693839.32,64671,10.06,73104.0,-6.47,-29.67,-29.79,0,*58
1515693840.53,64672,10.06,73102.5,-6.47,-29.67,-29.83,0,*5E
1515693841.75,64673,10.06,73102.3,-6.47,-29.83,-29.83,0,*55
1515693843.01,64674,10.06,73104.0,-6.51,-29.89,-30.05,0,*59
1515693844.24,64675,10.06,73106.3,-6.47,-29.79,-30.01,0,*54
1515693845.45,64676,10.06,73102.0,-6.47,-29.83,-29.79,0,*55
1515693846.66,64677,10.06,73104.3,-6.47,-29.79,-29.83,0,*54
1515693847.88,64678,10.06,73104.8,-6.47,-29.83,-29.83,0,*5E
1515693849.14,64679,10.0,73102.3,-6.51,-29.73,-29.89,0,*5D
1515693850.35,64680,10.06,73102.0,-6.47,-29.67,-29.79,0,*56
1515693851.56,64681,10.06,73102.0,-6.47,-29.79,-29.83,0,*5D
1515693852.76,64682,10.06,73102.0,-6.47,-29.79,-29.95,0,*59
1515693853.97,64683,10.06,73104.3,-6.47,-29.83,-29.95,0,*5D
1515693855.21,64684,10.0,73102.8,-6.47,-29.79,-30.01,0,*5A
1515693856.42,64685,10.0,73098.8,-6.47,-29.83,-29.95,0,*5B
1515693857.62,64686,10.06,73104.5,-6.47,-29.79,-29.79,0,*5F
1515693858.85,64687,10.06,73102.3,-6.45,-29.79,-29.79,0,*5C
1515693860.09,64688,10.06,73104.0,-6.45,-29.67,-29.83,0,*59
1515693861.32,64689,10.06,73104.8,-6.45,-29.79,-29.83,0,*57
1515693862.59,64690,10.06,73104.8,-6.51,-29.89,-29.89,0,*5F
1515693863.86,64691,10.06,73102.0,-6.51,-29.89,-29.89,0,*5E
1515693865.12,64692,10.06,73104.0,-6.51,-29.89,-30.05,0,*51
1515693866.36,64693,10.0,73100.5,-6.51,-29.83,-30.01,0,*5E
1515693867.57,64694,10.06,73106.3,-6.47,-29.67,-29.83,0,*56
1515693868.78,64695,10.06,73104.0,-6.47,-29.79,-29.95,0,*5F
1515693869.98,64696,10.06,73102.5,-6.47,-29.79,-29.95,0,*5C
1515693871.2,64697,10.06,73100.3,-6.47,-29.79,-29.83,0,*5A
1515693872.43,64698,10.06,73102.3,-6.47,-29.83,-30.01,0,*52
1515693873.67,64699,10.06,73104.0,-6.51,-29.83,-30.05,0,*50
1515693874.91,64700,10.06,73102.8,-6.45,-29.83,-29.95,0,*55
1515693876.15,64701,10.06,73106.5,-6.51,-29.83,-29.89,0,*5C
1515693877.39,64702,10.06,73104.8,-6.51,-29.83,-30.01,0,*57
1515693878.6,64703,10.06,73104.0,-6.47,-29.83,-29.79,0,*56
1515693879.81,64704,10.06,73100.8,-6.47,-29.79,-29.83,0,*51
1515693881.02,64705,10.06,73102.8,-6.47,-29.79,-29.83,0,*50
1515693882.23,64706,10.06,73102.3,-6.47,-29.79,-29.83,0,*53
1515693883.44,64707,10.06,73104.5,-6.47,-29.79,-29.83,0,*52
1515693884.67,64708,10.06,73104.5,-6.47,-29.79,-30.01,0,*5F
1515693885.91,64709,10.06,73100.0,-6.47,-29.79,-30.01,0,*5E
1515693887.15,64710,10.06,73106.5,-6.51,-29.83,-29.89,0,*5C
1515693888.36,64711,10.06,73100.8,-6.47,-29.83,-29.83,0,*50
1515693889.6,64712,10.06,73102.3,-6.51,-29.83,-30.01,0,*56
1515693890.84,64713,10.06,73104.5,-6.51,-29.83,-30.01,0,*57
1515693892.08,64714,10.06,73104.0,-6.47,-29.79,-30.01,0,*52
1515693893.28,64715,10.06,73104.5,-6.47,-29.79,-29.95,0,*56
1515693894.5,64716,10.06,73102.3,-6.47,-29.79,-29.83,0,*52
1515693895.7,64717,10.06,73104.0,-6.47,-29.79,-29.95,0,*54
1515693896.94,64718,10.06,73104.5,-6.51,-29.83,-30.01,0,*5C
1515693898.15,64719,10.06,73104.8,-6.47,-29.79,-29.83,0,*5D
1515693899.39,64720,10.06,73102.8,-6.51,-29.83,-29.89,0,*5F
1515693900.61,64721,10.06,73100.8,-6.51,-29.83,-29.83,0,*54
1515693901.85,64722,10.06,73102.5,-6.51,-29.83,-30.05,0,*51
1515693903.05,64723,10.06,73106.5,-6.47,-29.79,-30.11,0,*57
1515693904.32,64724,10.06,73106.0,-6.51,-29.89,-30.01,0,*59
1515693905.55,64725,10.06,73104.3,-6.51,-29.83,-30.05,0,*56
1515693906.76,64726,10.06,73108.3,-6.47,-29.83,-29.95,0,*53
1515693907.97,64727,10.06,73104.0,-6.47,-29.79,-29.95,0,*57
1515693909.18,64728,10.06,73104.0,-6.47,-29.79,-29.83,0,*5F
1515693910.42,64729,10.06,73104.8,-6.51,-29.83,-30.01,0,*5E
1515693911.66,64730,10.06,73106.5,-6.47,-29.89,-29.83,0,*59
1515693912.87,64731,10.06,73106.5,-6.47,-29.79,-29.95,0,*50
1515693914.11,64732,10.06,73106.5,-6.47,-29.95,-30.01,0,*54
1515693915.35,64733,10.06,73106.8,-6.51,-29.83,-30.01,0,*55
1515693916.55,64734,10.0,73104.0,-6.47,-29.79,-29.95,0,*55
1515693917.77,64735,10.06,73104.0,-6.47,-29.83,-29.83,0,*56
1515693918.98,64736,10.06,73104.3,-6.47,-29.83,-29.95,0,*52
1515693920.19,64737,10.0,73102.0,-6.47,-29.79,-29.95,0,*56
1515693921.42,64738,10.06,73106.8,-6.47,-29.95,-30.01,0,*5E
1515693922.64,64739,10.06,73110.5,-6.47,-29.83,-29.95,0,*5D
1515693923.87,64740,10.06,73104.5,-6.47,-29.79,-30.01,0,*53
1515693925.08,64741,10.06,73106.8,-6.47,-29.83,-29.95,0,*52
1515693926.3,64742,10.06,73106.3,-6.47,-29.83,-29.83,0,*56
1515693927.54,64743,10.06,73102.0,-6.51,-29.83,-29.89,0,*5A
1515693928.75,64744,10.06,73104.8,-6.47,-29.67,-29.79,0,*5F
1515693929.96,64745,10.06,73102.3,-6.47,-29.83,-29.95,0,*56
1515693931.17,64746,10.06,73100.8,-6.47,-29.83,-29.95,0,*55
1515693932.38,64747,10.06,73104.0,-6.47,-29.79,-29.95,0,*51
1515693933.61,64748,10.06,73106.8,-6.51,-29.83,-30.01,0,*59
1515693934.86,64749,10.06,73104.5,-6.51,-29.83,-29.89,0,*50
1515693936.1,64750,10.06,73104.5,-6.47,-29.83,-29.89,0,*5F
1515693937.3,64751,10.06,73106.3,-6.47,-29.79,-29.79,0,*54
1515693938.52,64752,10.06,73102.3,-6.51,-29.83,-29.83,0,*50
1515693939.76,64753,10.06,73100.3,-6.51,-29.83,-29.89,0,*5B
1515693940.97,64754,10.06,73104.0,-6.47,-29.83,-29.83,0,*51
1515693942.22,64755,10.06,73100.3,-6.47,-29.83,-29.89,0,*5A
1515693943.43,64756,10.06,73108.5,-6.47,-29.79,-29.83,0,*56
1515693944.63,64757,10.06,73100.0,-6.47,-29.79,-29.79,0,*52
1515693945.89,64758,10.06,73106.0,-6.51,-29.89,-30.01,0,*52
1515693947.1,64759,10.06,73102.8,-6.51,-29.79,-29.95,0,*59
1515693948.34,64760,10.06,73102.8,-6.47,-29.89,-29.95,0,*5B
1515693949.55,64761,10.06,73102.0,-6.47,-29.79,-29.95,0,*55
1515693950.79,64762,10.06,73102.0,-6.51,-29.83,-29.89,0,*59
1515693952.0,64763,10.06,73104.5,-6.47,-29.83,-29.95,0,*52
1515693953.21,64764,10.06,73104.8,-6.47,-29.95,-30.11,0,*56
1515693954.42,64765,10.06,73106.3,-6.51,-29.95,-30.11,0,*50
1515693955.68,64766,10.06,73100.8,-6.51,-30.01,-30.17,0,*50
1515693956.93,64767,10.06,73106.3,-6.51,-30.01,-30.05,0,*52
1515693958.14,64768,10.06,73108.3,-6.51,-29.95,-30.11,0,*5D
1515693959.35,64769,10.06,73102.8,-6.47,-29.95,-29.95,0,*5F
1515693960.61,64770,10.06,73102.8,-6.51,-30.01,-30.01,0,*50
1515693961.86,64771,10.06,73102.8,-6.51,-30.01,-30.05,0,*55
1515693963.1,64772,10.06,73102.3,-6.47,-29.83,-30.05,0,*53
1515693964.35,64773,10.06,73106.5,-6.51,-30.01,-30.05,0,*57
1515693965.59,64774,10.06,73100.3,-6.47,-29.95,-30.01,0,*56
1515693966.81,64775,10.06,73104.0,-6.51,-29.83,-29.83,0,*55
1515693968.06,64776,10.0,73102.5,-6.51,-29.73,-29.73,0,*56
1515693969.3,64777,10.06,73108.8,-6.51,-29.83,-29.89,0,*5D
1515693970.57,64778,10.06,73106.5,-6.51,-29.89,-30.01,0,*50
1515693971.82,64779,10.06,73108.0,-6.51,-30.01,-30.05,0,*5D
1515693973.06,64780,10.06,73106.8,-6.51,-29.83,-30.01,0,*5D
1515693974.33,64781,10.06,73102.3,-6.51,-29.89,-30.01,0,*56
1515693975.57,64782,10.06,73102.8,-6.51,-29.83,-30.01,0,*5F
1515693976.81,64783,10.06,73100.5,-6.51,-29.83,-30.05,0,*5A
1515693978.04,64784,10.06,73108.0,-6.51,-29.83,-30.05,0,*5D
1515693979.31,64785,10.06,73104.3,-6.51,-29.89,-30.01,0,*52
1515693980.57,64786,10.06,73104.8,-6.51,-29.89,-30.05,0,*55
1515693981.78,64787,10.06,73106.0,-6.47,-29.79,-29.95,0,*5D
1515693983.04,64788,10.06,73108.0,-6.51,-29.89,-30.01,0,*5F
1515693984.29,64789,10.06,73104.5,-6.51,-30.01,-30.05,0,*52
1515693985.56,64790,10.06,73106.3,-6.51,-29.89,-30.05,0,*52
1515693986.81,64791,10.06,73106.0,-6.51,-30.01,-30.05,0,*5B
1515693988.07,64792,10.06,73102.0,-6.51,-30.01,-30.01,0,*5C
1515693989.33,64793,10.06,73104.0,-6.51,-29.89,-30.01,0,*55
1515693990.6,64794,10.06,73104.8,-6.51,-29.89,-30.01,0,*52
1515693991.86,64795,10.06,73104.8,-6.51,-29.89,-30.05,0,*57
1515693993.12,64796,10.06,73106.3,-6.53,-29.89,-29.95,0,*57
1515693994.39,64797,10.06,73106.5,-6.51,-29.89,-30.01,0,*51
1515693995.65,64798,10.06,73104.5,-6.53,-29.89,-30.11,0,*5D
1515693996.9,64799,10.06,73100.8,-6.53,-30.05,-30.23,0,*51
1515693998.13,64800,10.06,73104.8,-6.53,-29.95,-29.95,0,*5A
1515693999.4,64801,10.06,73106.0,-6.53,-29.89,-29.95,0,*56
1515694000.65,64802,10.06,73110.3,-6.53,-30.11,-30.05,0,*5D
1515694001.9,64803,10.06,73110.3,-6.51,-30.01,-30.05,0,*5F
1515694003.16,64804,10.06,73110.0,-6.51,-30.01,-30.05,0,*58
1515694004.44,64805,10.06,73106.5,-6.53,-29.89,-30.05,0,*53
1515694005.71,64806,10.0,73100.3,-6.51,-29.89,-30.01,0,*56
1515694006.97,64807,10.06,73106.8,-6.53,-29.95,-30.05,0,*5C
1515694008.26,64808,10.06,73102.5,-6.53,-29.89,-29.89,0,*52
1515694009.55,64809,10.06,73104.3,-6.53,-29.89,-29.89,0,*53
1515694010.83,64810,10.06,73106.0,-6.53,-29.89,-30.05,0,*57
1515694012.12,64811,10.06,73106.0,-6.53,-29.89,-30.05,0,*56
1515694013.41,64812,10.06,73106.8,-6.53,-29.89,-30.05,0,*55
1515694014.66,64813,10.06,73102.5,-6.53,-29.89,-29.79,0,*57
1515694015.92,64814,10.06,73106.5,-6.53,-29.89,-29.95,0,*52
1515694017.18,64815,10.06,73108.3,-6.53,-30.05,-30.23,0,*5A
1515694018.44,64816,10.0,73100.5,-6.51,-29.89,-30.01,0,*57
1515694019.68,64817,10.06,73104.8,-6.51,-29.73,-29.83,0,*51
1515694020.92,64818,10.06,73100.3,-6.51,-29.83,-29.89,0,*5B
1515694022.18,64819,10.06,73102.3,-6.51,-30.01,-30.01,0,*50
1515694023.44,64820,10.06,73106.8,-6.51,-29.89,-30.05,0,*56
1515694024.7,64821,10.06,73098.8,-6.53,-29.95,-30.05,0,*58
1515694025.93,64822,10.06,73102.8,-6.53,-29.95,-29.95,0,*5A
1515694027.19,64823,10.06,73102.5,-6.51,-30.01,-30.05,0,*5D
1515694028.42,64824,10.06,73106.0,-6.53,-29.95,-29.95,0,*5C
1515694029.65,64825,10.06,73104.3,-6.53,-29.95,-30.11,0,*59
1515694030.88,64826,10.06,73102.8,-6.53,-30.11,-30.11,0,*5E
1515694032.13,64827,10.06,73104.5,-6.53,-30.05,-30.11,0,*5A
1515694033.38,64828,10.06,73110.0,-6.53,-30.05,-30.23,0,*54
1515694034.63,64829,10.06,73108.3,-6.53,-30.05,-30.23,0,*55
1515694035.87,64830,10.06,73104.0,-6.53,-30.11,-30.23,0,*58
1515694037.14,64831,10.06,73106.0,-6.53,-30.05,-30.05,0,*58
1515694038.39,64832,10.06,73106.8,-6.53,-30.05,-30.11,0,*5E
1515694039.67,64833,10.06,73110.5,-6.53,-30.05,-30.05,0,*5A
1515694040.88,64834,10.06,73106.8,-6.55,-29.95,-30.23,0,*5E
1515694042.14,64835,10.06,73112.0,-6.53,-29.95,-30.05,0,*5D
1515694043.4,64836,10.06,73108.0,-6.51,-29.89,-30.05,0,*51
1515694044.66,64837,10.06,73110.8,-6.53,-30.05,-30.11,0,*5B
1515694045.89,64838,10.06,73108.5,-6.55,-30.05,-30.27,0,*57
1515694047.14,64839,10.06,73108.0,-6.51,-30.01,-30.05,0,*56
1515694048.42,64840,10.06,73108.5,-6.53,-30.05,-30.05,0,*5E
1515694049.68,64841,10.06,73110.0,-6.53,-29.95,-30.05,0,*5E
1515694050.94,64842,10.06,73110.8,-6.53,-29.95,-30.05,0,*5D
1515694052.19,64843,10.0,73104.3,-6.53,-30.05,-30.11,0,*58
1515694053.44,64844,10.06,73110.3,-6.55,-30.05,-30.05,0,*5C
1515694054.68,64845,10.06,73104.5,-6.55,-29.95,-30.05,0,*5C
1515694055.94,64846,10.06,73106.3,-6.53,-29.95,-30.05,0,*59
1515694057.2,64847,10.06,73104.5,-6.53,-29.95,-30.05,0,*58
1515694058.46,64848,10.06,73110.3,-6.53,-29.95,-30.05,0,*57
1515694059.73,64849,10.06,73106.3,-6.53,-30.05,-30.05,0,*57
1515694060.98,64850,10.06,73110.5,-6.53,-30.05,-30.11,0,*5A
1515694062.24,64851,10.06,73108.8,-6.53,-29.95,-30.05,0,*5F
1515694063.53,64852,10.06,73106.5,-6.53,-29.89,-29.89,0,*5D
1515694064.8,64853,10.06,73106.0,-6.51,-29.89,-30.05,0,*52
1515694066.05,64854,10.06,73104.3,-6.53,-29.95,-30.05,0,*5A
1515694067.34,64855,10.06,73100.3,-6.53,-29.89,-30.05,0,*56
1515694068.58,64856,10.06,73106.3,-6.55,-29.95,-30.05,0,*5E
1515694069.84,64857,10.06,73104.5,-6.53,-29.95,-30.05,0,*59
1515694071.11,64858,10.06,73106.3,-6.53,-30.05,-30.05,0,*57
1515694072.37,64859,10.06,73106.0,-6.53,-29.89,-29.79,0,*59
1515694073.66,64860,10.06,73104.8,-6.53,-29.89,-29.89,0,*5C
1515694074.9,64861,10.06,73110.3,-6.55,-29.95,-30.05,0,*5A
1515694076.16,64862,10.06,73108.0,-6.51,-30.01,-30.01,0,*5C
1515694077.42,64863,10.06,73110.5,-6.53,-29.89,-29.95,0,*52
1515694078.66,64864,10.06,73106.5,-6.55,-29.89,-29.95,0,*53
1515694079.95,64865,10.06,73108.8,-6.53,-29.89,-29.89,0,*59
1515694081.21,64866,10.06,73110.3,-6.53,-29.89,-29.95,0,*57
1515694082.47,64867,10.06,73106.8,-6.51,-29.89,-30.05,0,*55
1515694083.73,64868,10.06,73110.0,-6.53,-29.89,-29.95,0,*59
1515694085.02,64869,10.06,73110.8,-6.53,-29.89,-29.89,0,*55
1515694086.25,64870,10.06,73108.8,-6.53,-29.79,-29.79,0,*5D
1515694087.51,64871,10.06,73110.5,-6.53,-29.79,-29.89,0,*53
1515694088.78,64872,10.06,73114.5,-6.55,-29.89,-29.89,0,*59
1515694090.07,64873,10.06,73108.3,-6.53,-29.89,-29.89,0,*5E
1515694091.31,64874,10.06,73106.5,-6.53,-29.95,-29.95,0,*59
1515694092.59,64875,10.06,73106.8,-6.53,-29.89,-30.05,0,*54
1515694093.85,64876,10.06,73110.5,-6.53,-29.89,-29.95,0,*56
1515694095.12,64877,10.06,73114.8,-6.53,-29.89,-29.95,0,*57
1515694096.41,64878,10.06,73108.3,-6.53,-29.89,-29.89,0,*55